GW5212 Weather Reports


time (UTC)temp
F
wind
direction
speed
knots
gust
knots
rain 1hr
in
rain 24hr
in
rain mn
in
humidity
%
barometer
mb
20260505195519 68 275 0.0 0.0 0.00 0.35 0.00 99 1016.7
20260505194517 68 261 0.0 0.0 0.00 0.35 0.00 99 1016.7
20260505193517 68 213 0.0 0.0 0.00 0.35 0.00 99 1016.6
20260505192518 68 234 0.0 0.0 0.00 0.35 0.00 99 1016.5
20260505191518 68 245 0.0 0.0 0.00 0.35 0.00 99 1016.6
20260505190518 68 253 0.0 0.0 0.00 0.35 0.00 99 1016.7
20260505185545 68 166 0.0 0.0 0.00 0.35 0.00 99 1016.6
20260505184522 68 226 0.0 0.0 0.00 0.35 0.00 99 1016.7
20260505183525 68 224 0.0 0.0 0.00 0.35 0.00 99 1016.6
20260505182521 68 270 0.0 0.0 0.00 0.35 0.00 99 1016.9
20260505181524 68 293 0.0 0.0 0.00 0.35 0.00 99 1017.0
20260505180520 68 239 0.0 0.0 0.00 0.35 0.00 99 1017.0
20260505175525 68 206 0.0 0.0 0.00 0.35 0.00 99 1017.1
20260505174520 68 237 0.0 0.0 0.00 0.35 0.00 99 1017.2
20260505173540 68 153 0.0 0.0 0.00 0.35 0.00 99 1017.4
20260505172524 68 232 0.0 1.7 0.00 0.35 0.00 99 1017.5
20260505171519 68 194 0.0 0.0 0.00 0.35 0.00 99 1017.6
20260505170523 68 232 0.0 0.0 0.00 0.35 0.00 99 1017.7
20260505165620 68 258 0.0 0.0 0.00 0.35 0.00 99 1017.8
20260505164518 68 223 0.0 0.0 0.00 0.35 0.00 99 1017.9
20260505163519 68 220 0.0 0.0 0.00 0.35 0.00 99 1018.0
20260505162542 68 148 0.0 0.0 0.00 0.35 0.00 99 1018.0
20260505161522 68 236 0.0 0.0 0.00 0.35 0.00 99 1018.1
20260505160520 68 278 0.0 0.0 0.00 0.35 0.00 99 1018.1
20260505152520 68 189 0.0 0.0 0.00 0.35 0.35 99 1018.5
20260505151524 68 275 0.0 0.0 0.00 0.35 0.35 99 1018.8
20260505150518 68 287 0.0 0.0 0.00 0.35 0.35 99 1018.9
20260505140521 69 277 0.0 0.0 0.00 0.35 0.35 99 1018.9
20260505124520 69 229 0.0 0.0 0.05 0.34 0.34 99 1018.4
20260505124129 69 179 0.0 0.0 0.06 0.34 0.34 99 1018.7